GW5247 Weather Reports


time (UTC)temp
F
wind
direction
speed
knots
gust
knots
rain 1hr
in
rain 24hr
in
rain mn
in
humidity
%
barometer
mb
20260505152515 75 248 1.7 6.1 0.00 0.00 0.00 57 1017.1
20260505151518 74 226 1.7 4.3 0.00 0.00 0.00 57 1017.2
20260505150515 73 235 1.7 4.3 0.00 0.00 0.00 58 1017.4
20260505140516 69 249 2.6 10.4 0.00 0.00 0.00 64 1017.2
20260505124518 63 276 1.7 5.2 0.00 0.00 0.00 72 1017.3
20260505123518 62 253 0.9 3.5 0.00 0.00 0.00 74 1017.5
20260505122518 61 264 0.9 3.5 0.00 0.00 0.00 75 1017.5
20260505121515 59 283 0.9 3.5 0.00 0.00 0.00 77 1017.5
20260505120515 57 274 1.7 3.5 0.00 0.00 0.00 79 1017.4
20260505115515 55 33 0.0 1.7 0.00 0.00 0.00 84 1017.6
20260505114515 53 350 0.0 2.6 0.00 0.00 0.00 89 1017.6
20260505113515 52 37 0.9 1.7 0.00 0.00 0.00 94 1017.5
20260505112536 51 37 0.0 1.7 0.00 0.00 0.00 95 1017.5
20260505111516 50 18 0.0 0.9 0.00 0.00 0.00 95 1017.4
20260505110516 49 20 0.0 0.9 0.00 0.00 0.00 95 1017.4
20260505101517 49 22 0.9 2.6 0.00 0.00 0.00 93 1017.0
20260505100517 49 353 0.0 0.9 0.00 0.00 0.00 93 1016.9
20260505095537 49 42 0.0 0.9 0.00 0.00 0.00 92 1016.9
20260505094517 50 27 0.0 0.9 0.00 0.00 0.00 91 1016.9
20260505093517 50 39 0.0 0.9 0.00 0.00 0.00 91 1016.9
20260505092518 50 39 0.0 0.9 0.00 0.00 0.00 90 1016.9
20260505091518 51 330 0.0 0.9 0.00 0.00 0.00 89 1016.8
20260505090518 51 25 0.0 1.7 0.00 0.00 0.00 87 1016.8
20260505085518 52 7 0.0 1.7 0.00 0.00 0.00 86 1016.7
20260505084518 53 65 0.0 2.6 0.00 0.00 0.00 85 1016.6
20260505083515 53 43 0.0 1.7 0.00 0.00 0.00 85 1016.5
20260505082516 52 29 0.9 1.7 0.00 0.00 0.00 85 1016.5
20260505081516 53 25 0.9 1.7 0.00 0.00 0.00 85 1016.4
20260505080516 53 22 0.0 1.7 0.00 0.00 0.00 84 1016.3
20260505075516 53 17 0.0 1.7 0.00 0.00 0.00 83 1016.3
20260505074516 54 32 0.9 1.7 0.00 0.00 0.00 83 1016.2
20260505073517 54 33 0.0 1.7 0.00 0.00 0.00 83 1016.2
20260505072537 54 48 0.9 1.7 0.00 0.00 0.00 82 1016.3
20260505071517 54 49 0.0 1.7 0.00 0.00 0.00 82 1016.3
20260505070517 55 30 0.0 1.7 0.00 0.00 0.00 81 1016.2
20260505065517 55 21 0.0 0.9 0.00 0.00 0.00 80 1016.2
20260505064517 56 10 0.0 0.9 0.00 0.00 0.00 79 1016.2
20260505063537 56 4 0.0 0.9 0.00 0.00 0.00 77 1016.2
20260505062517 57 354 0.0 1.7 0.00 0.00 0.00 76 1016.1
20260505061517 57 331 0.0 2.6 0.00 0.00 0.00 76 1016.1
20260505060518 57 336 0.0 1.7 0.00 0.00 0.00 76 1016.2
20260505055538 58 346 0.0 1.7 0.00 0.00 0.00 75 1016.3
20260505054518 59 343 0.0 0.9 0.00 0.00 0.00 73 1016.3
20260505053518 59 8 0.9 1.7 0.00 0.00 0.00 72 1016.3
20260505052539 60 2 0.9 2.6 0.00 0.00 0.00 71 1016.4
20260505051518 60 351 0.9 1.7 0.00 0.00 0.00 71 1016.4
20260505050519 60 325 0.0 1.7 0.00 0.00 0.00 70 1016.5
20260505041517 62 296 1.7 3.5 0.00 0.00 0.00 67 1016.3
20260505040520 63 328 0.9 2.6 0.00 0.00 0.00 67 1016.4
20260505035538 63 303 0.9 5.2 0.00 0.00 0.00 65 1016.3
20260505034518 63 333 0.9 2.6 0.00 0.00 0.00 65 1016.3
20260505033518 64 308 0.9 3.5 0.00 0.00 0.00 64 1016.2
20260505032516 64 266 1.7 5.2 0.00 0.00 0.00 63 1016.2
20260505031516 64 258 1.7 9.6 0.00 0.00 0.00 62 1016.2
20260505030515 65 264 1.7 7.0 0.00 0.00 0.00 62 1016.2
20260505025515 65 269 1.7 6.1 0.00 0.00 0.00 62 1016.2
20260505024515 65 276 1.7 6.1 0.00 0.00 0.00 62 1016.2
20260505023516 66 255 1.7 4.3 0.00 0.00 0.00 61 1016.1
20260505022516 66 256 0.9 5.2 0.00 0.00 0.00 61 1016.1
20260505021516 66 250 1.7 9.6 0.00 0.00 0.00 61 1016.0
20260505020516 67 262 0.9 5.2 0.00 0.00 0.00 61 1016.0
20260505015517 67 252 0.9 6.1 0.00 0.00 0.00 61 1015.9
20260505014537 68 256 0.9 4.3 0.00 0.00 0.00 60 1015.8
20260505013517 68 257 0.9 6.1 0.00 0.00 0.00 58 1015.7
20260505012517 69 257 1.7 4.3 0.00 0.00 0.00 56 1015.4
20260505011517 69 251 1.7 5.2 0.00 0.00 0.00 53 1015.2
20260505010538 68 278 0.9 3.5 0.00 0.00 0.00 50 1015.1
20260505005537 68 286 0.0 2.6 0.00 0.00 0.00 49 1015.0
20260505004558 68 268 0.9 2.6 0.00 0.00 0.00 49 1014.8
20260505003538 69 291 0.0 1.7 0.00 0.00 0.00 48 1014.8
20260505002518 70 274 0.0 1.7 0.00 0.00 0.00 46 1014.8
20260505001518 71 275 0.0 2.6 0.00 0.00 0.00 45 1014.7
20260505000518 72 264 0.0 3.5 0.00 0.00 0.00 44 1014.6
20260504235515 73 272 0.9 3.5 0.00 0.00 0.00 42 1014.5
20260504234515 73 265 0.9 4.3 0.00 0.00 0.00 41 1014.3
20260504233516 74 255 0.9 4.3 0.00 0.00 0.00 41 1014.2
20260504232516 75 234 0.9 2.6 0.00 0.00 0.00 40 1014.1
20260504231516 75 251 0.9 3.5 0.00 0.00 0.00 39 1014.0
20260504230517 76 249 1.7 7.0 0.00 0.00 0.00 38 1013.9
20260504225516 76 245 0.9 3.5 0.00 0.00 0.00 39 1013.9
20260504224516 77 244 1.7 4.3 0.00 0.00 0.00 37 1013.9
20260504223557 78 249 1.7 5.2 0.00 0.00 0.00 37 1013.8
20260504222517 78 241 1.7 6.1 0.00 0.00 0.00 37 1013.8
20260504221518 79 246 2.6 6.1 0.00 0.00 0.00 36 1013.7
20260504220537 79 239 1.7 4.3 0.00 0.00 0.00 35 1013.8
20260504215537 80 243 2.6 7.0 0.00 0.00 0.00 35 1013.6
20260504214517 80 238 2.6 8.7 0.00 0.00 0.00 35 1013.5
20260504213517 80 241 1.7 5.2 0.00 0.00 0.00 33 1013.5
20260504212538 80 256 1.7 4.3 0.00 0.00 0.00 33 1013.6
20260504211518 80 234 1.7 7.8 0.00 0.00 0.00 32 1013.5
20260504210515 80 253 3.5 7.8 0.00 0.00 0.00 31 1013.6
20260504205515 80 236 1.7 5.2 0.00 0.00 0.00 31 1013.6
20260504204515 81 247 2.6 8.7 0.00 0.00 0.00 31 1013.6
20260504203516 81 230 1.7 4.3 0.00 0.00 0.00 31 1013.7
20260504202516 81 218 1.7 6.1 0.00 0.00 0.00 31 1013.8
20260504201516 81 246 2.6 7.0 0.00 0.00 0.00 30 1014.0
20260504200516 80 249 1.7 5.2 0.00 0.00 0.00 31 1013.9
20260504195516 80 252 2.6 7.8 0.00 0.00 0.00 31 1014.0
20260504194516 80 233 1.7 6.1 0.00 0.00 0.00 31 1013.9
20260504193517 80 243 2.6 7.0 0.00 0.00 0.00 31 1014.0
20260504192516 80 253 1.7 5.2 0.00 0.00 0.00 31 1014.2
20260504191517 79 243 1.7 5.2 0.00 0.00 0.00 34 1014.3
20260504190517 79 247 3.5 7.0 0.00 0.00 0.00 33 1014.6
20260504185518 79 229 1.7 4.3 0.00 0.00 0.00 35 1014.5
20260504184538 79 227 2.6 7.8 0.00 0.00 0.00 34 1014.5
20260504183538 78 239 3.5 6.1 0.00 0.00 0.00 33 1014.6
20260504182538 78 247 3.5 7.8 0.00 0.00 0.00 35 1014.7
20260504181518 78 246 3.5 7.0 0.00 0.00 0.00 35 1014.8
20260504180515 78 233 1.7 7.0 0.00 0.00 0.00 36 1014.7
20260504175515 77 241 2.6 6.1 0.00 0.00 0.00 36 1014.9
20260504174516 77 244 3.5 8.7 0.00 0.00 0.00 37 1015.1
20260504173516 76 250 1.7 4.3 0.00 0.00 0.00 39 1015.2
20260504172516 76 254 3.5 7.8 0.00 0.00 0.00 38 1015.4
20260504171515 75 333 1.7 4.3 0.00 0.00 0.00 39 1015.5
20260504170516 76 248 3.5 7.8 0.00 0.00 0.00 39 1015.5